Time,TemperatureF,DewpointF,PressureIn,WindDirection,WindDirectionDegrees,WindSpeedMPH,WindSpeedGustMPH,Humidity,HourlyPrecipIn,Conditions,Clouds,dailyrainin,SoftwareType,DateUTC
2013-08-15 00:21:00,63.0,63.0,30.02,South,190,7.0,14.0,100,0.02,,,0.12,,2013-08-15 07:21:00,
2013-08-15 00:52:00,63.0,63.0,30.01,SSE,158,7.0,12.0,100,0.01,,,0.12,,2013-08-15 07:52:00,
2013-08-15 01:11:00,63.0,63.0,30.02,SSE,166,8.0,13.0,100,0.01,,,0.12,,2013-08-15 08:11:00,
2013-08-15 01:21:00,63.0,63.0,30.02,SSW,198,8.0,11.0,100,0.00,,,0.12,,2013-08-15 08:21:00,
2013-08-15 01:52:00,62.0,62.0,30.01,South,186,5.0,13.0,100,0.00,,,0.12,,2013-08-15 08:52:00,
2013-08-15 02:11:00,62.0,62.0,30.01,SSW,196,5.0,12.0,100,0.01,,,0.13,,2013-08-15 09:11:00,
2013-08-15 02:21:00,62.0,62.0,30.01,South,180,6.0,12.0,100,0.01,,,0.13,,2013-08-15 09:21:00,
2013-08-15 02:53:00,62.0,62.0,30.01,South,178,7.0,13.0,100,0.01,,,0.13,,2013-08-15 09:53:00,
2013-08-15 03:12:00,61.0,61.0,30.01,South,169,6.0,10.0,100,0.00,,,0.13,,2013-08-15 10:12:00,
2013-08-15 03:22:00,61.0,61.0,30.00,SSE,159,6.0,12.0,100,0.01,,,0.14,,2013-08-15 10:22:00,
2013-08-15 03:52:00,61.0,61.0,30.00,SSE,155,6.0,10.0,100,0.01,,,0.14,,2013-08-15 10:52:00,
2013-08-15 04:11:00,62.0,62.0,30.00,South,170,3.0,7.0,100,0.01,,,0.14,,2013-08-15 11:11:00,
2013-08-15 04:22:00,61.0,61.0,30.00,South,178,6.0,9.0,100,0.00,,,0.14,,2013-08-15 11:22:00,
2013-08-15 04:51:00,61.0,61.0,29.99,South,178,2.0,5.0,100,0.01,,,0.15,,2013-08-15 11:51:00,
2013-08-15 05:11:00,62.0,62.0,29.99,SSE,152,2.0,3.0,100,0.01,,,0.15,,2013-08-15 12:11:00,
2013-08-15 05:21:00,62.0,62.0,29.99,SSE,152,1.0,3.0,100,0.01,,,0.15,,2013-08-15 12:21:00,
2013-08-15 05:51:00,62.0,62.0,29.99,South,173,2.0,4.0,100,0.01,,,0.16,,2013-08-15 12:51:00,
2013-08-15 06:11:00,62.0,62.0,29.99,South,176,2.0,4.0,100,0.01,,,0.16,,2013-08-15 13:11:00,
2013-08-15 06:21:00,62.0,62.0,30.00,SSW,208,4.0,7.0,100,0.02,,,0.17,,2013-08-15 13:21:00,
2013-08-15 06:52:00,61.0,61.0,30.00,SSW,207,1.0,3.0,100,0.02,,,0.18,,2013-08-15 13:52:00,
2013-08-15 07:11:00,60.0,60.0,30.00,SW,229,0.0,3.0,100,0.03,,,0.19,,2013-08-15 14:11:00,
2013-08-15 07:22:00,60.0,60.0,30.00,SW,227,0.0,2.0,100,0.02,,,0.19,,2013-08-15 14:22:00,
2013-08-15 07:53:00,60.0,60.0,30.00,SW,231,1.0,2.0,100,0.01,,,0.19,,2013-08-15 14:53:00,
2013-08-15 08:12:00,60.0,60.0,30.01,SW,231,0.0,1.0,100,0.00,,,0.19,,2013-08-15 15:12:00,
2013-08-15 08:23:00,60.0,60.0,30.01,SW,231,1.0,2.0,100,0.01,,,0.20,,2013-08-15 15:23:00,
2013-08-15 08:34:00,60.0,60.0,30.01,SW,231,1.0,2.0,100,0.01,,,0.20,,2013-08-15 15:34:00,
2013-08-15 08:54:00,60.0,60.0,30.01,SSW,197,1.0,3.0,100,0.01,,,0.20,,2013-08-15 15:54:00,
2013-08-15 09:13:00,60.0,60.0,30.02,SW,223,1.0,3.0,100,0.01,,,0.20,,2013-08-15 16:13:00,
2013-08-15 09:20:00,60.0,-99.9,30.02,WSW,238,0.0,0.0,100,0.00,,,0.20,,2013-08-15 16:20:00,
2013-08-15 09:25:00,60.0,60.0,30.02,WSW,238,0.0,3.0,100,0.00,,,0.20,,2013-08-15 16:25:00,
2013-08-15 09:55:00,60.0,60.0,30.02,WSW,238,0.0,0.0,100,0.00,,,0.20,,2013-08-15 16:55:00,
2013-08-15 10:06:00,60.0,60.0,30.02,WSW,238,0.0,0.0,100,0.00,,,0.20,,2013-08-15 17:06:00,
2013-08-15 10:18:00,60.0,60.0,30.02,WSW,238,0.0,0.0,100,0.00,,,0.20,,2013-08-15 17:18:00,
2013-08-15 14:05:00,66.0,66.0,30.03,SW,236,3.0,6.0,100,0.00,,,0.21,,2013-08-15 21:05:00,
2013-08-15 14:57:00,66.0,66.0,30.03,SW,236,3.0,6.0,100,0.00,,,0.21,,2013-08-15 21:57:00,
2013-08-15 16:55:00,64.0,64.0,30.04,SE,142,3.0,4.0,100,0.00,,,0.24,,2013-08-15 23:55:00,
2013-08-15 17:12:00,64.0,64.0,30.05,SSE,167,1.0,2.0,100,0.00,,,0.24,,2013-08-16 00:12:00,
2013-08-15 17:24:00,62.0,62.0,30.04,NW,317,1.0,4.0,100,0.00,,,0.24,,2013-08-16 00:24:00,
2013-08-15 17:52:00,65.0,65.0,30.03,SE,134,3.0,6.0,100,0.00,,,0.24,,2013-08-16 00:52:00,
2013-08-15 18:26:00,67.0,67.0,30.03,SE,139,0.0,3.0,100,0.00,,,0.24,,2013-08-16 01:26:00,
2013-08-15 18:42:00,-999.0,-99.9,30.03,West,273,4.0,-999.0,-999,-99.99,,,-99.99,,2013-08-16 01:42:00,
2013-08-15 18:54:00,61.0,61.0,30.03,WNW,285,5.0,6.0,100,0.00,,,0.24,,2013-08-16 01:54:00,
2013-08-15 19:21:00,60.0,60.0,30.03,NW,309,2.0,7.0,100,0.00,,,0.24,,2013-08-16 02:21:00,
2013-08-15 19:43:00,60.0,60.0,30.03,WNW,298,3.0,5.0,100,0.00,,,0.24,,2013-08-16 02:43:00,
2013-08-15 19:51:00,60.0,60.0,30.03,WNW,288,3.0,6.0,100,0.00,,,0.24,,2013-08-16 02:51:00,
2013-08-15 20:21:00,61.0,61.0,30.03,North,355,4.0,6.0,100,0.00,,,0.22,,2013-08-16 03:21:00,
2013-08-15 20:53:00,62.0,62.0,30.03,ENE,66,0.0,3.0,100,0.00,,,0.22,,2013-08-16 03:53:00,
2013-08-15 21:23:00,62.0,62.0,30.04,SSE,149,2.0,4.0,100,0.00,,,0.18,,2013-08-16 04:23:00,
2013-08-15 21:53:00,61.0,61.0,30.05,West,269,2.0,3.0,100,0.00,,,0.18,,2013-08-16 04:53:00,
2013-08-15 22:11:00,60.0,60.0,30.05,West,274,1.0,2.0,100,0.00,,,0.15,,2013-08-16 05:11:00,
2013-08-15 22:21:00,60.0,60.0,30.05,West,274,1.0,2.0,100,0.00,,,0.15,,2013-08-16 05:21:00,
2013-08-15 22:52:00,60.0,60.0,30.06,West,273,1.0,3.0,100,0.00,,,0.15,,2013-08-16 05:52:00,